When you browse on this site, cookies collect data to enhance your experience and personalize the content and advertising you see.
Visit our Privacy Policy to learn more. By continuing to use the site, you agree to this use of cookies and data.
  • Em Portugal
  • Lista de países
  • Para 7 dias
  • Temperatura da água
  • Mapas de satélite
  • Mapa do tempo
  • Widgets de tempo
  • user-avatar
    Iniciar Sessão

    Previsão horária em Smolan

    Hoje, 19 Novembro, Segunda-feira

    Tempo Temperatura Precipitação Vento Pressão Humidade
    00:00 -2°C° 1.8 mm 2 m/s 650 mmHg 94%
    01:00 -2°C° 1.8 mm 2 m/s 649 mmHg 94%
    02:00 +1°C° 0 mm 1 m/s 649 mmHg 94%
    03:00 +1°C° 0.4 mm 1 m/s 649 mmHg 94%
    04:00 +2°C° 0.4 mm 1 m/s 649 mmHg 93%
    05:00 +2°C° 0.4 mm 1 m/s 649 mmHg 93%
    06:00 +2°C° 0 mm 1 m/s 649 mmHg 93%
    07:00 +2°C° 0 mm 1 m/s 649 mmHg 93%
    08:00 +3°C° 0 mm 1 m/s 650 mmHg 93%
    09:00 +4°C° 0 mm 1 m/s 650 mmHg 90%
    10:00 +5°C° 0 mm 1 m/s 651 mmHg 87%
    11:00 +6°C° 0 mm 1 m/s 652 mmHg 84%
    12:00 +7°C° 0 mm 1 m/s 652 mmHg 81%
    13:00 +7°C° 0 mm 1 m/s 653 mmHg 78%
    14:00 +8°C° 0 mm 1 m/s 653 mmHg 76%
    15:00 +7°C° 0 mm 1 m/s 653 mmHg 79%
    16:00 +6°C° 0 mm 1 m/s 653 mmHg 82%
    17:00 +4°C° 0 mm 1 m/s 653 mmHg 86%
    18:00 +4°C° 0 mm 1 m/s 653 mmHg 86%
    19:00 +3°C° 0 mm 1 m/s 653 mmHg 86%
    20:00 +3°C° 0 mm 1 m/s 653 mmHg 87%
    21:00 +3°C° 0 mm 1 m/s 654 mmHg 86%
    22:00 +2°C° 0 mm 1 m/s 654 mmHg 86%
    23:00 +2°C° 0 mm 1 m/s 654 mmHg 85%

    Amanhã, 20 Novembro, Terça-feira

    Tempo Temperatura Precipitação Vento Pressão Humidade
    00:00 +2°C° 0 mm 1 m/s 655 mmHg 85%
    01:00 +2°C° 0 mm 1 m/s 655 mmHg 85%
    02:00 +2°C° 0 mm 1 m/s 655 mmHg 85%
    03:00 +2°C° 0 mm 1 m/s 655 mmHg 86%
    04:00 +2°C° 0 mm 1 m/s 655 mmHg 86%
    05:00 +2°C° 0 mm 1 m/s 655 mmHg 86%
    06:00 +2°C° 0 mm 1 m/s 655 mmHg 87%
    07:00 +2°C° 0 mm 1 m/s 655 mmHg 87%
    08:00 +3°C° 0 mm 1 m/s 656 mmHg 88%
    09:00 +4°C° 0 mm 1 m/s 656 mmHg 87%
    10:00 +4°C° 0 mm 2 m/s 657 mmHg 86%
    11:00 +6°C° 0 mm 2 m/s 657 mmHg 85%
    12:00 +6°C° 0.1 mm 2 m/s 657 mmHg 87%
    13:00 +6°C° 0.1 mm 2 m/s 656 mmHg 88%
    14:00 +6°C° 0.1 mm 2 m/s 656 mmHg 89%
    15:00 +6°C° 0.2 mm 2 m/s 655 mmHg 91%
    16:00 +5°C° 0.2 mm 2 m/s 655 mmHg 93%
    17:00 +5°C° 0.2 mm 2 m/s 655 mmHg 95%
    18:00 +5°C° 0.3 mm 2 m/s 655 mmHg 95%
    19:00 +6°C° 0.3 mm 1 m/s 655 mmHg 96%
    20:00 +6°C° 0.3 mm 1 m/s 655 mmHg 96%
    21:00 +6°C° 0.4 mm 1 m/s 654 mmHg 96%
    22:00 +6°C° 0.4 mm 1 m/s 654 mmHg 97%
    23:00 +6°C° 0.4 mm 1 m/s 654 mmHg 97%

    Depois de amanhã, 21 Novembro, Quarta-feira

    Tempo Temperatura Precipitação Vento Pressão Humidade
    00:00 +6°C° 0.4 mm 1 m/s 654 mmHg 97%
    01:00 +6°C° 0.4 mm 1 m/s 654 mmHg 97%
    02:00 +6°C° 0.4 mm 1 m/s 654 mmHg 97%
    03:00 +6°C° 0.5 mm 1 m/s 653 mmHg 97%
    04:00 +6°C° 0.5 mm 1 m/s 653 mmHg 97%
    05:00 +6°C° 0.5 mm 1 m/s 652 mmHg 97%
    06:00 +6°C° 0.7 mm 1 m/s 652 mmHg 96%
    07:00 +6°C° 0.7 mm 1 m/s 652 mmHg 96%
    08:00 +6°C° 0.7 mm 1 m/s 652 mmHg 95%
    09:00 +7°C° 0.8 mm 1 m/s 652 mmHg 94%
    10:00 +7°C° 0.8 mm 1 m/s 652 mmHg 93%
    11:00 +7°C° 0.8 mm 2 m/s 652 mmHg 92%
    12:00 +8°C° 1.6 mm 1 m/s 652 mmHg 93%
    13:00 +8°C° 1.6 mm 1 m/s 652 mmHg 93%
    14:00 +7°C° 1.6 mm 1 m/s 651 mmHg 94%
    15:00 +7°C° 2.3 mm 1 m/s 651 mmHg 93%
    16:00 +5°C° 2.3 mm 2 m/s 651 mmHg 93%
    17:00 +5°C° 2.3 mm 2 m/s 651 mmHg 93%
    18:00 +4°C° 2 mm 2 m/s 651 mmHg 93%
    19:00 +4°C° 2 mm 2 m/s 652 mmHg 92%
    20:00 +3°C° 2 mm 3 m/s 652 mmHg 92%
    21:00 +2°C° 1.3 mm 3 m/s 653 mmHg 92%
    22:00 +2°C° 1.3 mm 3 m/s 653 mmHg 92%
    23:00 +2°C° 1.3 mm 3 m/s 653 mmHg 91%

    22 Novembro, Quinta-feira

    Tempo Temperatura Precipitação Vento Pressão Humidade
    00:00 +2°C° 0.5 mm 3 m/s 654 mmHg 91%
    01:00 +2°C° 0.5 mm 3 m/s 654 mmHg 91%
    02:00 +2°C° 0.5 mm 3 m/s 654 mmHg 91%
    03:00 +1°C° 0.3 mm 3 m/s 654 mmHg 91%
    04:00 +2°C° 0.3 mm 2 m/s 654 mmHg 91%
    05:00 +2°C° 0.3 mm 2 m/s 655 mmHg 91%
    06:00 +2°C° 0.2 mm 2 m/s 655 mmHg 90%
    07:00 +2°C° 0.2 mm 2 m/s 655 mmHg 90%
    08:00 +2°C° 0.2 mm 2 m/s 656 mmHg 90%
    09:00 +2°C° 0.2 mm 2 m/s 656 mmHg 89%
    10:00 +2°C° 0.2 mm 2 m/s 656 mmHg 88%
    11:00 +3°C° 0.2 mm 2 m/s 657 mmHg 87%
    12:00 +3°C° 0.3 mm 2 m/s 657 mmHg 87%
    13:00 +3°C° 0.3 mm 2 m/s 657 mmHg 86%
    14:00 +3°C° 0.3 mm 2 m/s 657 mmHg 86%
    15:00 +2°C° 0.3 mm 2 m/s 657 mmHg 88%
    16:00 +2°C° 0.3 mm 2 m/s 657 mmHg 89%
    17:00 +2°C° 0.3 mm 2 m/s 657 mmHg 91%
    18:00 +2°C° 0.3 mm 2 m/s 658 mmHg 91%
    19:00 +1°C° 0.3 mm 2 m/s 658 mmHg 91%
    20:00 +1°C° 0.3 mm 2 m/s 658 mmHg 91%
    21:00 +2°C° 0.2 mm 1 m/s 658 mmHg 91%
    22:00 +2°C° 0.2 mm 1 m/s 658 mmHg 91%
    23:00 +2°C° 0.2 mm 1 m/s 659 mmHg 91%

    23 Novembro, Sexta-feira

    Tempo Temperatura Precipitação Vento Pressão Humidade
    00:00 +1°C° 0.1 mm 1 m/s 659 mmHg 91%
    01:00 +1°C° 0.1 mm 1 m/s 659 mmHg 91%
    02:00 +1°C° 0.1 mm 1 m/s 659 mmHg 91%
    03:00 +1°C° 0 mm 1 m/s 659 mmHg 91%
    04:00 +1°C° 0 mm 1 m/s 659 mmHg 91%
    05:00 0°C° 0 mm 1 m/s 659 mmHg 90%
    06:00 0°C° 0 mm 1 m/s 659 mmHg 90%
    07:00 0°C° 0 mm 1 m/s 660 mmHg 90%
    08:00 0°C° 0 mm 1 m/s 660 mmHg 89%
    09:00 +1°C° 0 mm 1 m/s 661 mmHg 85%
    10:00 +2°C° 0 mm 1 m/s 661 mmHg 81%
    11:00 +2°C° 0 mm 2 m/s 661 mmHg 78%
    12:00 +2°C° 0 mm 2 m/s 661 mmHg 76%
    13:00 +3°C° 0 mm 2 m/s 661 mmHg 74%
    14:00 +3°C° 0 mm 2 m/s 661 mmHg 73%
    15:00 +3°C° 0 mm 1 m/s 661 mmHg 75%
    16:00 +2°C° 0 mm 1 m/s 661 mmHg 78%
    17:00 +1°C° 0 mm 1 m/s 661 mmHg 81%
    18:00 +1°C° 0 mm 1 m/s 661 mmHg 82%
    19:00 0°C° 0 mm 1 m/s 661 mmHg 82%
    20:00 -2°C° 0 mm 2 m/s 661 mmHg 83%
    21:00 -3°C° 0 mm 2 m/s 661 mmHg 83%
    22:00 -3°C° 0 mm 2 m/s 661 mmHg 82%
    23:00 -4°C° 0 mm 2 m/s 661 mmHg 81%

    24 Novembro, Sábado

    Tempo Temperatura Precipitação Vento Pressão Humidade
    00:00 -4°C° 0 mm 2 m/s 661 mmHg 80%
    01:00 -4°C° 0 mm 2 m/s 661 mmHg 80%
    02:00 -4°C° 0 mm 2 m/s 661 mmHg 79%
    03:00 -4°C° 0 mm 2 m/s 661 mmHg 77%
    04:00 -4°C° 0 mm 2 m/s 660 mmHg 75%
    05:00 -4°C° 0 mm 2 m/s 660 mmHg 73%
    06:00 -4°C° 0 mm 2 m/s 660 mmHg 71%
    07:00 -4°C° 0 mm 2 m/s 661 mmHg 69%
    08:00 -4°C° 0 mm 2 m/s 661 mmHg 67%
    09:00 0°C° 0 mm 1 m/s 661 mmHg 61%
    10:00 +2°C° 0 mm 1 m/s 662 mmHg 55%
    11:00 +4°C° 0 mm 1 m/s 662 mmHg 49%
    12:00 +4°C° 0 mm 1 m/s 662 mmHg 50%
    13:00 +5°C° 0 mm 1 m/s 662 mmHg 50%
    14:00 +5°C° 0 mm 1 m/s 661 mmHg 50%
    15:00 +4°C° 0 mm 1 m/s 661 mmHg 57%
    16:00 +2°C° 0 mm 1 m/s 660 mmHg 65%
    17:00 +1°C° 0 mm 1 m/s 660 mmHg 72%
    18:00 0°C° 0 mm 1 m/s 660 mmHg 73%
    19:00 0°C° 0 mm 1 m/s 659 mmHg 74%
    20:00 0°C° 0 mm 1 m/s 659 mmHg 75%
    21:00 0°C° 0 mm 1 m/s 659 mmHg 75%
    22:00 -1°C° 0 mm 1 m/s 659 mmHg 74%
    23:00 -1°C° 0 mm 1 m/s 659 mmHg 73%
    Mostrar mais